When you browse on this site, cookies collect data to enhance your experience and personalize the content and advertising you see.
Visit our Privacy Policy to learn more. By continuing to use the site, you agree to this use of cookies and data.
  • In Czech Republic
  • List of Countries
  • For 7 days
  • Water Temperature
  • Satellite Maps
  • Weather Map
  • Weather Widgets
  • user-avatar
    Login

    Hourly Weather Alcorcon

    Today, 17 December, Monday

    Time Temperature Precipitation Wind Pressure Humidity
    00:00 +5°C° 0 mm 2 mps 707 mmHg 80%
    01:00 +4°C° 0 mm 2 mps 707 mmHg 81%
    02:00 +5°C° 0 mm 1 mps 707 mmHg 81%
    03:00 +4°C° 0 mm 1 mps 707 mmHg 82%
    04:00 +4°C° 0 mm 1 mps 707 mmHg 81%
    05:00 +4°C° 0 mm 1 mps 707 mmHg 81%
    06:00 +3°C° 0 mm 1 mps 708 mmHg 81%
    07:00 +4°C° 0 mm 1 mps 708 mmHg 76%
    08:00 +5°C° 0 mm 1 mps 708 mmHg 72%
    09:00 +5°C° 0 mm 0 mps 709 mmHg 67%
    10:00 +7°C° 0 mm 1 mps 708 mmHg 62%
    11:00 +8°C° 0 mm 1 mps 708 mmHg 57%
    12:00 +9°C° 0 mm 1 mps 708 mmHg 52%
    13:00 +10°C° 0 mm 1 mps 708 mmHg 50%
    14:00 +10°C° 0 mm 1 mps 707 mmHg 49%
    15:00 +10°C° 0 mm 1 mps 707 mmHg 47%
    16:00 +9°C° 0 mm 1 mps 706 mmHg 53%
    17:00 +7°C° 0 mm 1 mps 706 mmHg 58%
    18:00 +6°C° 0 mm 1 mps 706 mmHg 63%
    19:00 +6°C° 0 mm 1 mps 706 mmHg 63%
    20:00 +5°C° 0 mm 1 mps 706 mmHg 64%
    21:00 +5°C° 0 mm 1 mps 707 mmHg 64%
    22:00 +5°C° 0 mm 1 mps 706 mmHg 64%
    23:00 +4°C° 0 mm 2 mps 706 mmHg 65%

    Tomorrow, 18 December, Tuesday

    Time Temperature Precipitation Wind Pressure Humidity
    00:00 +4°C° 0 mm 2 mps 706 mmHg 65%
    01:00 +4°C° 0 mm 2 mps 705 mmHg 66%
    02:00 +3°C° 0 mm 2 mps 705 mmHg 67%
    03:00 +3°C° 0 mm 2 mps 704 mmHg 68%
    04:00 +3°C° 0 mm 2 mps 704 mmHg 68%
    05:00 +3°C° 0 mm 2 mps 704 mmHg 69%
    06:00 +3°C° 0 mm 2 mps 703 mmHg 70%
    07:00 +3°C° 0 mm 2 mps 703 mmHg 68%
    08:00 +4°C° 0 mm 2 mps 704 mmHg 66%
    09:00 +5°C° 0 mm 2 mps 704 mmHg 64%
    10:00 +6°C° 0 mm 2 mps 703 mmHg 59%
    11:00 +7°C° 0 mm 2 mps 702 mmHg 55%
    12:00 +9°C° 0 mm 3 mps 702 mmHg 51%
    13:00 +9°C° 0 mm 3 mps 701 mmHg 50%
    14:00 +10°C° 0 mm 3 mps 701 mmHg 50%
    15:00 +10°C° 0 mm 3 mps 701 mmHg 50%
    16:00 +9°C° 0.1 mm 2 mps 701 mmHg 56%
    17:00 +8°C° 0.1 mm 2 mps 701 mmHg 61%
    18:00 +8°C° 0.1 mm 1 mps 701 mmHg 66%
    19:00 +8°C° 0.6 mm 1 mps 701 mmHg 71%
    20:00 +8°C° 0.6 mm 1 mps 701 mmHg 76%
    21:00 +8°C° 0.6 mm 1 mps 701 mmHg 80%
    22:00 +7°C° 0.3 mm 2 mps 701 mmHg 83%
    23:00 +7°C° 0.3 mm 2 mps 702 mmHg 86%

    Day after tomorrow, 19 December, Wednesday

    Time Temperature Precipitation Wind Pressure Humidity
    00:00 +7°C° 0.3 mm 2 mps 702 mmHg 89%
    01:00 +7°C° 0 mm 2 mps 702 mmHg 89%
    02:00 +6°C° 0 mm 2 mps 702 mmHg 89%
    03:00 +6°C° 0 mm 2 mps 702 mmHg 89%
    04:00 +5°C° 0 mm 2 mps 702 mmHg 87%
    05:00 +4°C° 0 mm 2 mps 703 mmHg 85%
    06:00 +4°C° 0 mm 2 mps 703 mmHg 83%
    07:00 +4°C° 0 mm 2 mps 703 mmHg 79%
    08:00 +5°C° 0 mm 2 mps 704 mmHg 76%
    09:00 +5°C° 0 mm 2 mps 704 mmHg 72%
    10:00 +7°C° 0 mm 3 mps 705 mmHg 67%
    11:00 +8°C° 0 mm 3 mps 705 mmHg 61%
    12:00 +8°C° 0 mm 4 mps 705 mmHg 56%
    13:00 +10°C° 0 mm 4 mps 705 mmHg 55%
    14:00 +10°C° 0 mm 4 mps 704 mmHg 54%
    15:00 +10°C° 0 mm 4 mps 704 mmHg 53%
    16:00 +8°C° 0 mm 4 mps 704 mmHg 60%
    17:00 +8°C° 0 mm 3 mps 704 mmHg 66%
    18:00 +5°C° 0 mm 3 mps 705 mmHg 73%
    19:00 +5°C° 0 mm 3 mps 705 mmHg 76%
    20:00 +6°C° 0 mm 2 mps 705 mmHg 78%
    21:00 +5°C° 0 mm 2 mps 706 mmHg 81%
    22:00 +5°C° 0 mm 2 mps 706 mmHg 82%
    23:00 +5°C° 0 mm 2 mps 706 mmHg 83%

    20 December, Thursday

    Time Temperature Precipitation Wind Pressure Humidity
    00:00 +4°C° 0 mm 2 mps 706 mmHg 84%
    01:00 +4°C° 0 mm 2 mps 706 mmHg 84%
    02:00 +5°C° 0 mm 1 mps 706 mmHg 84%
    03:00 +5°C° 0 mm 1 mps 706 mmHg 85%
    04:00 +5°C° 0 mm 1 mps 706 mmHg 85%
    05:00 +4°C° 0 mm 1 mps 706 mmHg 85%
    06:00 +4°C° 0 mm 1 mps 706 mmHg 86%
    07:00 +5°C° 0 mm 1 mps 706 mmHg 84%
    08:00 +6°C° 0 mm 1 mps 707 mmHg 83%
    09:00 +6°C° 0 mm 1 mps 707 mmHg 81%
    10:00 +8°C° 0 mm 1 mps 707 mmHg 75%
    11:00 +8°C° 0 mm 2 mps 707 mmHg 69%
    12:00 +9°C° 0 mm 2 mps 707 mmHg 63%
    13:00 +10°C° 0 mm 2 mps 707 mmHg 61%
    14:00 +10°C° 0 mm 2 mps 706 mmHg 59%
    15:00 +12°C° 0 mm 2 mps 706 mmHg 57%
    16:00 +9°C° 0 mm 2 mps 706 mmHg 63%
    17:00 +8°C° 0 mm 2 mps 707 mmHg 68%
    18:00 +7°C° 0 mm 2 mps 707 mmHg 74%
    19:00 +6°C° 0 mm 2 mps 707 mmHg 77%
    20:00 +7°C° 0 mm 1 mps 708 mmHg 79%
    21:00 +7°C° 0 mm 1 mps 708 mmHg 81%
    22:00 +6°C° 0 mm 1 mps 708 mmHg 82%
    23:00 +6°C° 0 mm 1 mps 708 mmHg 83%

    21 December, Friday

    Time Temperature Precipitation Wind Pressure Humidity
    00:00 +6°C° 0 mm 1 mps 708 mmHg 85%
    01:00 +6°C° 0 mm 1 mps 708 mmHg 85%
    02:00 +5°C° 0 mm 1 mps 708 mmHg 86%
    03:00 +5°C° 0 mm 1 mps 707 mmHg 87%
    04:00 +5°C° 0 mm 1 mps 707 mmHg 87%
    05:00 +5°C° 0 mm 1 mps 707 mmHg 87%
    06:00 +5°C° 0 mm 1 mps 707 mmHg 87%
    07:00 +6°C° 0 mm 1 mps 708 mmHg 85%
    08:00 +7°C° 0 mm 1 mps 708 mmHg 83%
    09:00 +8°C° 0 mm 1 mps 709 mmHg 81%
    10:00 +9°C° 0 mm 1 mps 709 mmHg 76%
    11:00 +9°C° 0 mm 2 mps 708 mmHg 72%
    12:00 +12°C° 0 mm 2 mps 708 mmHg 67%
    13:00 +12°C° 0 mm 2 mps 708 mmHg 67%
    14:00 +13°C° 0 mm 2 mps 708 mmHg 66%
    15:00 +12°C° 0 mm 3 mps 708 mmHg 66%
    16:00 +12°C° 0 mm 2 mps 708 mmHg 72%
    17:00 +10°C° 0 mm 2 mps 708 mmHg 79%
    18:00 +10°C° 0 mm 1 mps 708 mmHg 85%
    19:00 +9°C° 0 mm 1 mps 709 mmHg 86%
    20:00 +9°C° 0 mm 1 mps 709 mmHg 88%
    21:00 +9°C° 0 mm 1 mps 709 mmHg 90%
    22:00 +8°C° 0 mm 1 mps 709 mmHg 90%
    23:00 +8°C° 0 mm 1 mps 709 mmHg 91%

    22 December, Saturday

    Time Temperature Precipitation Wind Pressure Humidity
    00:00 +8°C° 0 mm 1 mps 708 mmHg 91%
    01:00 +7°C° 0 mm 1 mps 708 mmHg 92%
    02:00 +7°C° 0 mm 1 mps 708 mmHg 92%
    03:00 +7°C° 0 mm 1 mps 708 mmHg 93%
    04:00 +7°C° 0 mm 1 mps 708 mmHg 93%
    05:00 +7°C° 0 mm 1 mps 708 mmHg 93%
    06:00 +6°C° 0 mm 1 mps 708 mmHg 94%
    07:00 +7°C° 0 mm 1 mps 708 mmHg 93%
    08:00 +8°C° 0 mm 1 mps 709 mmHg 92%
    09:00 +9°C° 0 mm 1 mps 709 mmHg 91%
    10:00 +10°C° 0 mm 1 mps 709 mmHg 85%
    11:00 +12°C° 0 mm 1 mps 709 mmHg 78%
    12:00 +13°C° 0 mm 1 mps 709 mmHg 72%
    13:00 +13°C° 0 mm 1 mps 708 mmHg 70%
    14:00 +14°C° 0 mm 1 mps 708 mmHg 68%
    15:00 +14°C° 0 mm 1 mps 708 mmHg 66%
    16:00 +13°C° 0 mm 1 mps 707 mmHg 72%
    17:00 +11°C° 0 mm 1 mps 707 mmHg 78%
    18:00 +10°C° 0 mm 1 mps 707 mmHg 85%
    19:00 +9°C° 0 mm 1 mps 707 mmHg 85%
    20:00 +9°C° 0 mm 1 mps 708 mmHg 85%
    21:00 +9°C° 0 mm 1 mps 708 mmHg 85%
    22:00 +9°C° 0 mm 1 mps 708 mmHg 85%
    23:00 +8°C° 0 mm 1 mps 707 mmHg 85%
    Show more